| time (UTC) | temp F | wind direction | speed MPH | gust MPH | rain 1hr in | rain 24hr in | rain mn in | humidity % | barometer mb |
| 20260507040537 | 50 | 271 | 4.0 | 7.0 | 0.00 | 0.20 | 0.00 | 96 | 1006.4 |
| 20260507040037 | 50 | 288 | 1.0 | 8.0 | 0.00 | 0.20 | 0.00 | 96 | 1006.4 |
| 20260507035525 | 50 | 297 | 2.0 | 8.0 | 0.00 | 0.20 | 0.20 | 96 | 1006.3 |
| 20260507035021 | 50 | 281 | 4.0 | 8.0 | 0.00 | 0.20 | 0.20 | 97 | 1006.6 |
| 20260507034535 | 51 | 286 | 2.0 | 7.0 | 0.00 | 0.20 | 0.20 | 96 | 1006.4 |
| 20260507034030 | 51 | 304 | 3.0 | 7.0 | 0.00 | 0.20 | 0.20 | 96 | 1006.3 |
| 20260507033548 | 51 | 281 | 3.0 | 8.0 | 0.01 | 0.20 | 0.20 | 96 | 1006.3 |
| 20260507033019 | 51 | 275 | 4.0 | 9.0 | 0.01 | 0.20 | 0.20 | 96 | 1006.1 |
| 20260507032533 | 51 | 298 | 5.0 | 8.0 | 0.01 | 0.20 | 0.20 | 96 | 1006.2 |
| 20260507032035 | 52 | 309 | 3.0 | 9.0 | 0.01 | 0.20 | 0.20 | 96 | 1006.1 |
| 20260507031533 | 52 | 279 | 3.0 | 9.0 | 0.03 | 0.20 | 0.20 | 96 | 1006.0 |
| 20260507031045 | 52 | 341 | 5.0 | 8.0 | 0.04 | 0.20 | 0.20 | 96 | 1006.0 |
| 20260507030600 | 53 | 275 | 2.0 | 8.0 | 0.04 | 0.20 | 0.20 | 98 | 1005.9 |
| 20260507030028 | 53 | 276 | 1.0 | 8.0 | 0.05 | 0.20 | 0.20 | 98 | 1006.0 |
| 20260507025527 | 53 | 288 | 2.0 | 8.0 | 0.05 | 0.20 | 0.20 | 97 | 1005.7 |
| 20260507025041 | 53 | 299 | 3.0 | 7.0 | 0.05 | 0.20 | 0.20 | 98 | 1005.8 |
| 20260507024532 | 53 | 298 | 4.0 | 9.0 | 0.05 | 0.20 | 0.20 | 97 | 1005.6 |
| 20260507024019 | 54 | 309 | 5.0 | 11.0 | 0.05 | 0.20 | 0.20 | 97 | 1005.7 |
| 20260507023549 | 54 | 277 | 6.0 | 11.0 | 0.04 | 0.19 | 0.19 | 97 | 1005.7 |
| 20260507023027 | 55 | 296 | 5.0 | 14.0 | 0.04 | 0.19 | 0.19 | 97 | 1005.8 |
| 20260507022534 | 55 | 296 | 7.0 | 14.0 | 0.04 | 0.19 | 0.19 | 97 | 1005.9 |
| 20260507022028 | 56 | 284 | 6.0 | 13.0 | 0.04 | 0.19 | 0.19 | 98 | 1005.9 |
| 20260507021519 | 56 | 278 | 5.0 | 13.0 | 0.02 | 0.17 | 0.17 | 97 | 1006.0 |
| 20260507021047 | 56 | 268 | 6.0 | 13.0 | 0.01 | 0.16 | 0.16 | 97 | 1005.8 |
| 20260507020520 | 56 | 261 | 9.0 | 12.0 | 0.01 | 0.16 | 0.16 | 97 | 1005.7 |
| 20260507020038 | 57 | 281 | 8.0 | 13.0 | 0.00 | 0.15 | 0.15 | 97 | 1005.7 |
| 20260507015520 | 57 | 279 | 8.0 | 13.0 | 0.00 | 0.15 | 0.15 | 97 | 1005.3 |
| 20260507015037 | 57 | 298 | 8.0 | 13.0 | 0.00 | 0.15 | 0.15 | 97 | 1005.3 |
| 20260507014545 | 57 | 279 | 6.0 | 13.0 | 0.00 | 0.15 | 0.15 | 98 | 1005.2 |
| 20260507014041 | 58 | 275 | 10.0 | 14.0 | 0.00 | 0.15 | 0.15 | 98 | 1005.2 |
| 20260507013518 | 58 | 284 | 10.0 | 14.0 | 0.00 | 0.15 | 0.15 | 99 | 1005.4 |
| 20260507013044 | 58 | 273 | 11.0 | 14.0 | 0.00 | 0.15 | 0.15 | 99 | 1005.3 |
| 20260507012534 | 58 | 259 | 9.0 | 14.0 | 0.00 | 0.15 | 0.15 | 99 | 1005.0 |
| 20260507012018 | 58 | 252 | 8.0 | 14.0 | 0.00 | 0.15 | 0.15 | 99 | 1004.9 |
| 20260507011538 | 58 | 261 | 10.0 | 14.0 | 0.00 | 0.15 | 0.15 | 99 | 1004.8 |
| 20260507010523 | 58 | 264 | 6.0 | 13.0 | 0.00 | 0.15 | 0.15 | 99 | 1004.7 |
| 20260507010036 | 58 | 257 | 7.0 | 12.0 | 0.00 | 0.15 | 0.15 | 98 | 1004.8 |
| 20260507005545 | 58 | 253 | 8.0 | 13.0 | 0.00 | 0.15 | 0.15 | 98 | 1004.8 |
| 20260507005047 | 58 | 275 | 8.0 | 15.0 | 0.00 | 0.15 | 0.15 | 98 | 1004.8 |
| 20260507004521 | 58 | 257 | 10.0 | 15.0 | 0.00 | 0.15 | 0.15 | 98 | 1004.8 |
| 20260507003526 | 58 | 234 | 8.0 | 15.0 | 0.00 | 0.15 | 0.15 | 98 | 1004.7 |
| 20260507003022 | 58 | 263 | 8.0 | 14.0 | 0.00 | 0.15 | 0.15 | 98 | 1004.7 |
| 20260507002533 | 58 | 249 | 9.0 | 13.0 | 0.00 | 0.15 | 0.15 | 98 | 1004.7 |
| 20260507002024 | 58 | 225 | 7.0 | 13.0 | 0.00 | 0.15 | 0.15 | 98 | 1004.5 |
| 20260507001545 | 58 | 248 | 8.0 | 14.0 | 0.00 | 0.15 | 0.15 | 98 | 1004.5 |
| 20260507001056 | 58 | 250 | 9.0 | 14.0 | 0.00 | 0.15 | 0.15 | 98 | 1004.5 |
| 20260507000528 | 58 | 232 | 7.0 | 11.0 | 0.00 | 0.15 | 0.15 | 98 | 1004.6 |
| 20260507000045 | 58 | 227 | 7.0 | 11.0 | 0.00 | 0.15 | 0.15 | 98 | 1004.4 |
| 20260506235533 | 58 | 233 | 7.0 | 14.0 | 0.00 | 0.15 | 0.15 | 98 | 1004.4 |
| 20260506235047 | 58 | 205 | 8.0 | 14.0 | 0.00 | 0.15 | 0.15 | 98 | 1004.4 |
| 20260506234521 | 58 | 242 | 7.0 | 12.0 | 0.00 | 0.15 | 0.15 | 98 | 1004.5 |
| 20260506234031 | 58 | 227 | 7.0 | 11.0 | 0.00 | 0.15 | 0.15 | 98 | 1004.4 |
| 20260506233523 | 58 | 250 | 5.0 | 10.0 | 0.00 | 0.15 | 0.15 | 98 | 1004.3 |
| 20260506233039 | 58 | 248 | 5.0 | 11.0 | 0.00 | 0.15 | 0.15 | 98 | 1004.2 |
| 20260506232551 | 58 | 214 | 7.0 | 11.0 | 0.00 | 0.15 | 0.15 | 98 | 1004.2 |
| 20260506232023 | 58 | 217 | 4.0 | 6.0 | 0.01 | 0.15 | 0.15 | 98 | 1004.1 |
| 20260506231533 | 58 | 212 | 4.0 | 8.0 | 0.01 | 0.15 | 0.15 | 98 | 1004.1 |
| 20260506231045 | 58 | 225 | 6.0 | 10.0 | 0.01 | 0.15 | 0.15 | 98 | 1004.2 |
| 20260506230027 | 58 | 223 | 4.0 | 9.0 | 0.01 | 0.15 | 0.15 | 97 | 1004.2 |
| 20260506225551 | 58 | 211 | 5.0 | 10.0 | 0.01 | 0.15 | 0.15 | 97 | 1004.2 |
| 20260506225034 | 58 | 243 | 7.0 | 10.0 | 0.01 | 0.15 | 0.15 | 97 | 1004.3 |
| 20260506224537 | 58 | 232 | 5.0 | 9.0 | 0.01 | 0.15 | 0.15 | 97 | 1004.4 |
| 20260506224051 | 58 | 246 | 4.0 | 12.0 | 0.01 | 0.15 | 0.15 | 97 | 1004.4 |
| 20260506223546 | 58 | 256 | 6.0 | 12.0 | 0.02 | 0.15 | 0.15 | 97 | 1004.5 |
| 20260506223027 | 58 | 240 | 6.0 | 13.0 | 0.02 | 0.15 | 0.15 | 97 | 1004.4 |
| 20260506222536 | 58 | 211 | 6.0 | 13.0 | 0.01 | 0.14 | 0.14 | 97 | 1004.5 |
| 20260506222025 | 58 | 222 | 5.0 | 17.0 | 0.01 | 0.14 | 0.14 | 97 | 1004.4 |
| 20260506221527 | 58 | 233 | 9.0 | 17.0 | 0.01 | 0.14 | 0.14 | 97 | 1004.4 |
| 20260506221035 | 58 | 235 | 7.0 | 13.0 | 0.01 | 0.14 | 0.14 | 97 | 1004.4 |
| 20260506220531 | 58 | 255 | 7.0 | 15.0 | 0.02 | 0.14 | 0.14 | 97 | 1004.5 |
| 20260506220054 | 58 | 244 | 9.0 | 13.0 | 0.02 | 0.14 | 0.14 | 97 | 1004.6 |
| 20260506215526 | 58 | 229 | 7.0 | 12.0 | 0.03 | 0.14 | 0.14 | 97 | 1004.6 |
| 20260506215042 | 58 | 216 | 7.0 | 11.0 | 0.03 | 0.14 | 0.14 | 97 | 1004.6 |
| 20260506214520 | 58 | 240 | 5.0 | 12.0 | 0.04 | 0.14 | 0.14 | 97 | 1004.7 |
| 20260506214037 | 58 | 221 | 8.0 | 13.0 | 0.03 | 0.13 | 0.13 | 97 | 1004.6 |
| 20260506213546 | 58 | 238 | 8.0 | 13.0 | 0.03 | 0.13 | 0.13 | 97 | 1004.6 |
| 20260506213023 | 58 | 211 | 7.0 | 10.0 | 0.04 | 0.13 | 0.13 | 97 | 1004.6 |
| 20260506212540 | 58 | 222 | 4.0 | 10.0 | 0.04 | 0.13 | 0.13 | 98 | 1004.6 |
| 20260506212056 | 58 | 209 | 5.0 | 17.0 | 0.05 | 0.13 | 0.13 | 98 | 1004.6 |
| 20260506211520 | 58 | 218 | 7.0 | 17.0 | 0.07 | 0.13 | 0.13 | 98 | 1004.7 |
| 20260506211021 | 58 | 232 | 6.0 | 9.0 | 0.07 | 0.13 | 0.13 | 98 | 1004.7 |
| 20260506210519 | 58 | 219 | 5.0 | 12.0 | 0.07 | 0.12 | 0.12 | 98 | 1004.7 |
| 20260506210024 | 58 | 210 | 6.0 | 12.0 | 0.08 | 0.12 | 0.12 | 98 | 1004.7 |
| 20260506205518 | 58 | 192 | 5.0 | 9.0 | 0.07 | 0.11 | 0.11 | 98 | 1004.8 |
| 20260506205033 | 58 | 227 | 5.0 | 9.0 | 0.07 | 0.11 | 0.11 | 97 | 1004.8 |
| 20260506204534 | 58 | 186 | 5.0 | 11.0 | 0.07 | 0.10 | 0.10 | 97 | 1004.9 |
| 20260506204026 | 58 | 213 | 5.0 | 13.0 | 0.07 | 0.10 | 0.10 | 97 | 1005.0 |
| 20260506203557 | 58 | 228 | 7.0 | 13.0 | 0.07 | 0.10 | 0.10 | 97 | 1005.1 |
| 20260506203032 | 58 | 175 | 6.0 | 8.0 | 0.06 | 0.09 | 0.09 | 97 | 1005.2 |
| 20260506202544 | 58 | 222 | 4.0 | 9.0 | 0.06 | 0.09 | 0.09 | 97 | 1005.2 |
| 20260506202040 | 58 | 195 | 4.0 | 9.0 | 0.05 | 0.08 | 0.08 | 97 | 1005.3 |
| 20260506201529 | 58 | 199 | 4.0 | 8.0 | 0.03 | 0.06 | 0.06 | 97 | 1005.3 |
| 20260506201030 | 59 | 199 | 4.0 | 8.0 | 0.04 | 0.06 | 0.06 | 97 | 1005.3 |
| 20260506200515 | 59 | 240 | 3.0 | 8.0 | 0.03 | 0.05 | 0.05 | 97 | 1005.3 |
| 20260506200033 | 59 | 209 | 6.0 | 13.0 | 0.02 | 0.04 | 0.04 | 97 | 1005.3 |
| 20260506195524 | 59 | 242 | 5.0 | 13.0 | 0.02 | 0.04 | 0.04 | 97 | 1005.4 |
| 20260506195057 | 59 | 205 | 5.0 | 8.0 | 0.02 | 0.04 | 0.04 | 97 | 1005.4 |
| 20260506194529 | 59 | 214 | 5.0 | 10.0 | 0.01 | 0.03 | 0.03 | 96 | 1005.5 |
| 20260506194047 | 59 | 213 | 1.0 | 7.0 | 0.01 | 0.03 | 0.03 | 96 | 1005.6 |
| 20260506193524 | 59 | 207 | 4.0 | 11.0 | 0.01 | 0.03 | 0.03 | 96 | 1005.7 |
| 20260506193034 | 59 | 216 | 6.0 | 11.0 | 0.01 | 0.03 | 0.03 | 96 | 1005.7 |
| 20260506192546 | 59 | 211 | 6.0 | 8.0 | 0.01 | 0.03 | 0.03 | 96 | 1005.7 |
| 20260506192055 | 59 | 197 | 6.0 | 9.0 | 0.01 | 0.03 | 0.03 | 96 | 1005.7 |
| 20260506191547 | 59 | 213 | 5.0 | 9.0 | 0.01 | 0.03 | 0.03 | 96 | 1005.5 |
| 20260506191039 | 59 | 205 | 4.0 | 10.0 | 0.00 | 0.02 | 0.02 | 96 | 1005.7 |
| 20260506190521 | 59 | 210 | 5.0 | 10.0 | 0.01 | 0.02 | 0.02 | 95 | 1005.7 |
| 20260506190033 | 59 | 199 | 6.0 | 11.0 | 0.01 | 0.02 | 0.02 | 95 | 1005.8 |
| 20260506185529 | 59 | 229 | 7.0 | 11.0 | 0.01 | 0.02 | 0.02 | 95 | 1005.8 |
| 20260506185019 | 60 | 206 | 4.0 | 7.0 | 0.01 | 0.02 | 0.02 | 95 | 1005.7 |
| 20260506184551 | 60 | 207 | 3.0 | 7.0 | 0.01 | 0.02 | 0.02 | 95 | 1005.5 |
| 20260506184041 | 60 | 163 | 2.0 | 7.0 | 0.02 | 0.02 | 0.02 | 95 | 1005.6 |
| 20260506183559 | 60 | 209 | 1.0 | 7.0 | 0.02 | 0.02 | 0.02 | 95 | 1005.7 |
| 20260506183019 | 60 | 202 | 3.0 | 7.0 | 0.02 | 0.02 | 0.02 | 94 | 1005.8 |
| 20260506182607 | 60 | 242 | 3.0 | 7.0 | 0.02 | 0.02 | 0.02 | 93 | 1006.0 |
| 20260506182059 | 60 | 204 | 3.0 | 7.0 | 0.02 | 0.02 | 0.02 | 93 | 1006.1 |
| 20260506181549 | 60 | 199 | 3.0 | 9.0 | 0.02 | 0.02 | 0.02 | 92 | 1006.2 |
| 20260506181039 | 60 | 238 | 4.0 | 7.0 | 0.02 | 0.02 | 0.02 | 92 | 1006.2 |
| 20260506180545 | 60 | 207 | 3.0 | 7.0 | 0.01 | 0.01 | 0.01 | 91 | 1006.4 |
| 20260506180025 | 61 | 202 | 3.0 | 9.0 | 0.01 | 0.01 | 0.01 | 90 | 1006.5 |
| 20260506175541 | 61 | 201 | 5.0 | 8.0 | 0.01 | 0.01 | 0.01 | 89 | 1006.6 |
| 20260506175032 | 61 | 166 | 3.0 | 8.0 | 0.01 | 0.01 | 0.01 | 88 | 1006.7 |
| 20260506174526 | 61 | 198 | 4.0 | 10.0 | 0.01 | 0.01 | 0.01 | 87 | 1006.8 |
| 20260506174035 | 62 | 221 | 4.0 | 10.0 | 0.00 | 0.00 | 0.00 | 85 | 1006.7 |
| 20260506173525 | 62 | 198 | 4.0 | 12.0 | 0.00 | 0.00 | 0.00 | 85 | 1006.9 |
| 20260506173041 | 62 | 216 | 6.0 | 12.0 | 0.00 | 0.00 | 0.00 | 83 | 1007.0 |
| 20260506172551 | 63 | 227 | 5.0 | 9.0 | 0.00 | 0.00 | 0.00 | 82 | 1007.0 |
| 20260506172043 | 63 | 212 | 6.0 | 14.0 | 0.00 | 0.00 | 0.00 | 81 | 1006.9 |
| 20260506171550 | 63 | 235 | 8.0 | 14.0 | 0.00 | 0.00 | 0.00 | 80 | 1006.8 |
| 20260506171039 | 63 | 249 | 9.0 | 16.0 | 0.00 | 0.00 | 0.00 | 79 | 1006.6 |
| 20260506170534 | 63 | 240 | 10.0 | 16.0 | 0.00 | 0.00 | 0.00 | 79 | 1006.6 |
| 20260506170020 | 64 | 232 | 6.0 | 11.0 | 0.00 | 0.00 | 0.00 | 78 | 1006.8 |
| 20260506165531 | 64 | 229 | 5.0 | 16.0 | 0.00 | 0.00 | 0.00 | 78 | 1006.8 |
| 20260506165024 | 64 | 232 | 11.0 | 16.0 | 0.00 | 0.00 | 0.00 | 78 | 1006.8 |
| 20260506164534 | 64 | 205 | 8.0 | 14.0 | 0.00 | 0.00 | 0.00 | 78 | 1006.9 |
| 20260506164043 | 64 | 249 | 7.0 | 14.0 | 0.00 | 0.00 | 0.00 | 78 | 1006.9 |
| 20260506163533 | 63 | 246 | 7.0 | 15.0 | 0.00 | 0.00 | 0.00 | 78 | 1006.9 |
| 20260506163032 | 63 | 242 | 10.0 | 16.0 | 0.00 | 0.00 | 0.00 | 79 | 1007.0 |
| 20260506162601 | 63 | 214 | 9.0 | 16.0 | 0.00 | 0.00 | 0.00 | 78 | 1007.0 |
| 20260506162048 | 63 | 231 | 10.0 | 13.0 | 0.00 | 0.00 | 0.00 | 78 | 1007.2 |
| 20260506161520 | 63 | 201 | 6.0 | 16.0 | 0.00 | 0.00 | 0.00 | 78 | 1007.3 |
| 20260506161024 | 63 | 217 | 10.0 | 16.0 | 0.00 | 0.00 | 0.00 | 79 | 1007.4 |
| 20260506160536 | 63 | 232 | 9.0 | 15.0 | 0.00 | 0.00 | 0.00 | 79 | 1007.5 |
| 20260506160027 | 63 | 223 | 11.0 | 15.0 | 0.00 | 0.00 | 0.00 | 78 | 1007.5 |
| 20260506155534 | 63 | 231 | 9.0 | 17.0 | 0.00 | 0.00 | 0.00 | 79 | 1007.4 |
| 20260506155018 | 63 | 254 | 11.0 | 16.0 | 0.00 | 0.00 | 0.00 | 78 | 1007.6 |
| 20260506154534 | 63 | 223 | 7.0 | 20.0 | 0.00 | 0.00 | 0.00 | 80 | 1007.7 |
| 20260506154046 | 63 | 254 | 12.0 | 20.0 | 0.00 | 0.00 | 0.00 | 78 | 1007.7 |
| 20260506153522 | 63 | 251 | 7.0 | 13.0 | 0.00 | 0.00 | 0.00 | 79 | 1007.7 |
| 20260506153020 | 63 | 214 | 7.0 | 13.0 | 0.00 | 0.00 | 0.00 | 80 | 1007.8 |
| 20260506152524 | 63 | 263 | 9.0 | 13.0 | 0.00 | 0.00 | 0.00 | 80 | 1007.9 |
| 20260506152037 | 63 | 234 | 8.0 | 11.0 | 0.00 | 0.00 | 0.00 | 80 | 1007.9 |
| 20260506151547 | 63 | 261 | 8.0 | 13.0 | 0.00 | 0.00 | 0.00 | 79 | 1007.9 |
| 20260506151028 | 63 | 234 | 8.0 | 17.0 | 0.00 | 0.00 | 0.00 | 79 | 1008.1 |
| 20260506150559 | 63 | 242 | 10.0 | 18.0 | 0.00 | 0.00 | 0.00 | 79 | 1008.0 |
| 20260506150022 | 63 | 234 | 13.0 | 18.0 | 0.00 | 0.00 | 0.00 | 78 | 1008.1 |
| 20260506145536 | 64 | 209 | 8.0 | 19.0 | 0.00 | 0.00 | 0.00 | 77 | 1008.1 |
| 20260506145026 | 64 | 242 | 11.0 | 19.0 | 0.00 | 0.00 | 0.00 | 77 | 1008.2 |
| 20260506144538 | 64 | 217 | 8.0 | 16.0 | 0.00 | 0.00 | 0.00 | 77 | 1008.2 |
| 20260506144040 | 64 | 211 | 9.0 | 16.0 | 0.00 | 0.00 | 0.00 | 78 | 1007.9 |
| 20260506143519 | 63 | 210 | 6.0 | 16.0 | 0.00 | 0.00 | 0.00 | 78 | 1007.9 |
| 20260506143019 | 63 | 221 | 9.0 | 16.0 | 0.00 | 0.00 | 0.00 | 78 | 1008.1 |
| 20260506142534 | 63 | 210 | 10.0 | 16.0 | 0.00 | 0.00 | 0.00 | 79 | 1008.1 |
| 20260506142044 | 63 | 259 | 8.0 | 18.0 | 0.00 | 0.00 | 0.00 | 80 | 1008.1 |
| 20260506141525 | 64 | 271 | 8.0 | 19.0 | 0.00 | 0.00 | 0.00 | 78 | 1007.9 |
| 20260506141020 | 64 | 250 | 9.0 | 18.0 | 0.00 | 0.00 | 0.00 | 77 | 1007.9 |
| 20260506140540 | 64 | 226 | 8.0 | 18.0 | 0.00 | 0.00 | 0.00 | 79 | 1007.7 |
| 20260506140033 | 63 | 208 | 7.0 | 12.0 | 0.00 | 0.00 | 0.00 | 79 | 1007.7 |
| 20260506135528 | 63 | 222 | 7.0 | 16.0 | 0.00 | 0.00 | 0.00 | 79 | 1007.7 |
| 20260506135038 | 63 | 231 | 8.0 | 16.0 | 0.00 | 0.00 | 0.00 | 79 | 1007.6 |
| 20260506134550 | 63 | 214 | 7.0 | 14.0 | 0.00 | 0.00 | 0.00 | 79 | 1007.5 |
| 20260506134024 | 63 | 246 | 7.0 | 14.0 | 0.00 | 0.00 | 0.00 | 81 | 1007.7 |
| 20260506133551 | 63 | 236 | 10.0 | 19.0 | 0.00 | 0.00 | 0.00 | 82 | 1007.8 |
| 20260506133033 | 63 | 261 | 9.0 | 19.0 | 0.00 | 0.00 | 0.00 | 81 | 1007.9 |
| 20260506132526 | 63 | 200 | 4.0 | 10.0 | 0.00 | 0.00 | 0.00 | 81 | 1007.9 |
| 20260506132039 | 63 | 206 | 6.0 | 12.0 | 0.00 | 0.00 | 0.00 | 81 | 1008.0 |
| 20260506131531 | 62 | 228 | 8.0 | 12.0 | 0.00 | 0.00 | 0.00 | 81 | 1008.0 |
| 20260506131039 | 62 | 223 | 3.0 | 9.0 | 0.00 | 0.00 | 0.00 | 81 | 1008.0 |
| 20260506130533 | 62 | 221 | 3.0 | 10.0 | 0.00 | 0.00 | 0.00 | 82 | 1008.1 |
| 20260506130015 | 62 | 219 | 4.0 | 13.0 | 0.00 | 0.00 | 0.00 | 82 | 1008.2 |
| 20260506125533 | 62 | 204 | 6.0 | 18.0 | 0.00 | 0.00 | 0.00 | 82 | 1008.2 |
| 20260506125022 | 62 | 266 | 10.0 | 17.0 | 0.00 | 0.00 | 0.00 | 82 | 1008.2 |
| 20260506124539 | 62 | 224 | 10.0 | 15.0 | 0.00 | 0.00 | 0.00 | 82 | 1008.2 |
| 20260506124048 | 62 | 246 | 8.0 | 15.0 | 0.00 | 0.00 | 0.00 | 83 | 1008.1 |
| 20260506123528 | 62 | 219 | 7.0 | 13.0 | 0.00 | 0.00 | 0.00 | 83 | 1008.2 |
| 20260506123048 | 62 | 232 | 8.0 | 13.0 | 0.00 | 0.00 | 0.00 | 83 | 1008.2 |
| 20260506122518 | 62 | 218 | 10.0 | 13.0 | 0.00 | 0.00 | 0.00 | 85 | 1008.4 |
| 20260506122017 | 61 | 206 | 8.0 | 12.0 | 0.00 | 0.00 | 0.00 | 84 | 1008.2 |
| 20260506121533 | 61 | 227 | 6.0 | 12.0 | 0.00 | 0.00 | 0.00 | 86 | 1008.1 |
| 20260506121048 | 61 | 215 | 6.0 | 12.0 | 0.00 | 0.00 | 0.00 | 86 | 1008.2 |
| 20260506120601 | 60 | 209 | 6.0 | 18.0 | 0.00 | 0.00 | 0.00 | 86 | 1008.3 |
| 20260506120016 | 60 | 227 | 6.0 | 16.0 | 0.00 | 0.00 | 0.00 | 87 | 1008.2 |
| 20260506115528 | 60 | 234 | 9.0 | 16.0 | 0.00 | 0.00 | 0.00 | 87 | 1008.4 |
| 20260506115014 | 60 | 249 | 11.0 | 16.0 | 0.00 | 0.00 | 0.00 | 87 | 1008.5 |
| 20260506114532 | 60 | 264 | 7.0 | 19.0 | 0.00 | 0.00 | 0.00 | 87 | 1008.4 |
| 20260506114040 | 59 | 225 | 10.0 | 19.0 | 0.00 | 0.00 | 0.00 | 87 | 1008.4 |
| 20260506113520 | 59 | 219 | 4.0 | 10.0 | 0.00 | 0.00 | 0.00 | 87 | 1008.3 |
| 20260506113017 | 59 | 217 | 6.0 | 12.0 | 0.00 | 0.00 | 0.00 | 88 | 1008.5 |
| 20260506112530 | 59 | 212 | 6.0 | 14.0 | 0.00 | 0.00 | 0.00 | 87 | 1008.6 |
| 20260506112026 | 59 | 206 | 8.0 | 14.0 | 0.00 | 0.00 | 0.00 | 87 | 1008.6 |
| 20260506111525 | 59 | 212 | 7.0 | 12.0 | 0.00 | 0.00 | 0.00 | 87 | 1008.7 |
| 20260506111033 | 59 | 209 | 5.0 | 11.0 | 0.00 | 0.00 | 0.00 | 87 | 1008.7 |
| 20260506110543 | 59 | 247 | 7.0 | 11.0 | 0.00 | 0.00 | 0.00 | 87 | 1008.6 |
| 20260506110024 | 59 | 235 | 6.0 | 13.0 | 0.00 | 0.00 | 0.00 | 87 | 1008.7 |
| 20260506105536 | 59 | 222 | 6.0 | 11.0 | 0.00 | 0.00 | 0.00 | 87 | 1008.7 |
| 20260506105045 | 59 | 225 | 6.0 | 11.0 | 0.00 | 0.00 | 0.00 | 87 | 1008.7 |
| 20260506104520 | 58 | 227 | 6.0 | 11.0 | 0.00 | 0.00 | 0.00 | 87 | 1008.6 |
| 20260506104041 | 58 | 193 | 5.0 | 10.0 | 0.00 | 0.00 | 0.00 | 87 | 1008.4 |
| 20260506103517 | 58 | 208 | 4.0 | 10.0 | 0.00 | 0.00 | 0.00 | 88 | 1008.4 |
| 20260506103029 | 58 | 236 | 6.0 | 10.0 | 0.00 | 0.00 | 0.00 | 88 | 1008.5 |
| 20260506102602 | 58 | 207 | 5.0 | 10.0 | 0.00 | 0.00 | 0.00 | 87 | 1008.6 |
| 20260506102038 | 58 | 192 | 4.0 | 8.0 | 0.00 | 0.00 | 0.00 | 87 | 1008.4 |
| 20260506101527 | 58 | 203 | 3.0 | 8.0 | 0.00 | 0.00 | 0.00 | 87 | 1008.5 |
| 20260506100522 | 58 | 240 | 5.0 | 10.0 | 0.00 | 0.00 | 0.00 | 87 | 1008.4 |
| 20260506100020 | 58 | 247 | 5.0 | 9.0 | 0.00 | 0.00 | 0.00 | 86 | 1008.4 |
| 20260506095535 | 58 | 213 | 4.0 | 9.0 | 0.00 | 0.00 | 0.00 | 86 | 1008.3 |
| 20260506095025 | 58 | 221 | 5.0 | 10.0 | 0.00 | 0.00 | 0.00 | 86 | 1008.4 |
| 20260506094548 | 58 | 245 | 4.0 | 10.0 | 0.00 | 0.00 | 0.00 | 86 | 1008.3 |
| 20260506094022 | 58 | 200 | 4.0 | 9.0 | 0.00 | 0.00 | 0.00 | 86 | 1008.3 |
| 20260506093517 | 58 | 199 | 4.0 | 10.0 | 0.00 | 0.00 | 0.00 | 86 | 1008.3 |
| 20260506093021 | 58 | 222 | 4.0 | 9.0 | 0.00 | 0.00 | 0.00 | 86 | 1008.3 |
| 20260506092533 | 58 | 227 | 5.0 | 9.0 | 0.00 | 0.00 | 0.00 | 85 | 1008.3 |
| 20260506092047 | 58 | 227 | 4.0 | 9.0 | 0.00 | 0.00 | 0.00 | 85 | 1008.3 |
| 20260506091521 | 58 | 205 | 5.0 | 9.0 | 0.00 | 0.00 | 0.00 | 84 | 1008.3 |
| 20260506091033 | 58 | 213 | 4.0 | 9.0 | 0.00 | 0.00 | 0.00 | 84 | 1008.2 |
| 20260506090536 | 58 | 246 | 5.0 | 11.0 | 0.00 | 0.00 | 0.00 | 84 | 1008.2 |
| 20260506090048 | 59 | 207 | 5.0 | 11.0 | 0.00 | 0.00 | 0.00 | 84 | 1008.4 |
| 20260506085539 | 59 | 240 | 4.0 | 11.0 | 0.00 | 0.00 | 0.00 | 84 | 1008.3 |
| 20260506085036 | 59 | 211 | 5.0 | 9.0 | 0.00 | 0.00 | 0.00 | 83 | 1008.3 |
| 20260506084519 | 59 | 208 | 5.0 | 8.0 | 0.00 | 0.00 | 0.00 | 82 | 1008.4 |
| 20260506084033 | 59 | 203 | 4.0 | 7.0 | 0.00 | 0.00 | 0.00 | 82 | 1008.4 |
| 20260506083522 | 59 | 236 | 3.0 | 10.0 | 0.00 | 0.00 | 0.00 | 82 | 1008.4 |
| 20260506083042 | 59 | 211 | 3.0 | 10.0 | 0.00 | 0.00 | 0.00 | 81 | 1008.4 |
| 20260506082517 | 60 | 209 | 5.0 | 9.0 | 0.00 | 0.00 | 0.00 | 80 | 1008.5 |
| 20260506082025 | 60 | 227 | 4.0 | 9.0 | 0.00 | 0.00 | 0.00 | 80 | 1008.5 |
| 20260506081520 | 60 | 227 | 5.0 | 9.0 | 0.00 | 0.00 | 0.00 | 80 | 1008.6 |
| 20260506081027 | 60 | 230 | 4.0 | 8.0 | 0.00 | 0.00 | 0.00 | 80 | 1008.5 |
| 20260506080520 | 60 | 218 | 5.0 | 12.0 | 0.00 | 0.00 | 0.00 | 80 | 1008.4 |
| 20260506073046 | 61 | 208 | 5.0 | 11.0 | 0.00 | 0.00 | 0.00 | 79 | 1008.5 |
| 20260506072533 | 61 | 238 | 6.0 | 11.0 | 0.00 | 0.00 | 0.00 | 78 | 1008.5 |
| 20260506072026 | 61 | 209 | 6.0 | 8.0 | 0.00 | 0.00 | 0.00 | 78 | 1008.6 |
| 20260506071025 | 61 | 259 | 6.0 | 12.0 | 0.00 | 0.00 | 0.00 | 77 | 1008.4 |
| 20260506070525 | 61 | 217 | 6.0 | 12.0 | 0.00 | 0.00 | 0.00 | 77 | 1008.4 |
| 20260506062024 | 61 | 228 | 4.0 | 8.0 | 0.00 | 0.00 | 0.00 | 77 | 1008.5 |
| 20260506061541 | 61 | 235 | 4.0 | 8.0 | 0.00 | 0.00 | 0.00 | 77 | 1008.5 |
| 20260506061023 | 61 | 236 | 4.0 | 7.0 | 0.00 | 0.00 | 0.00 | 76 | 1008.5 |
| 20260506060535 | 61 | 244 | 5.0 | 9.0 | 0.00 | 0.00 | 0.00 | 76 | 1008.5 |
| 20260506051035 | 61 | 254 | 6.0 | 12.0 | 0.00 | 0.00 | 0.00 | 74 | 1008.4 |
| 20260506050547 | 61 | 238 | 6.0 | 12.0 | 0.00 | 0.00 | 0.00 | 73 | 1008.5 |
| 20260506045023 | 62 | 219 | 5.0 | 10.0 | 0.00 | 0.00 | 0.00 | 72 | 1008.7 |
| 20260506044539 | 62 | 244 | 6.0 | 10.0 | 0.00 | 0.00 | 0.00 | 73 | 1008.7 |
| 20260506044028 | 62 | 253 | 6.0 | 11.0 | 0.00 | 0.00 | 0.00 | 73 | 1008.7 |
| 20260506043540 | 62 | 241 | 6.0 | 11.0 | 0.00 | 0.00 | 0.00 | 73 | 1008.7 |
| 20260506043023 | 62 | 232 | 6.0 | 10.0 | 0.00 | 0.00 | 0.00 | 71 | 1008.7 |
| 20260506042518 | 62 | 213 | 6.0 | 11.0 | 0.00 | 0.00 | 0.00 | 72 | 1008.7 |
| 20260506042031 | 62 | 221 | 6.0 | 14.0 | 0.00 | 0.00 | 0.00 | 70 | 1008.7 |
| 20260506041543 | 62 | 213 | 6.0 | 11.0 | 0.00 | 0.00 | 0.00 | 70 | 1008.7 |
| 20260506041022 | 62 | 234 | 6.0 | 12.0 | 0.00 | 0.00 | 0.00 | 70 | 1008.8 |